Time,TemperatureF,DewpointF,PressureIn,WindDirection,WindDirectionDegrees,WindSpeedMPH,WindSpeedGustMPH,Humidity,HourlyPrecipIn,Conditions,Clouds,dailyrainin,SoftwareType,DateUTC
2013-11-07 00:01:00,43.1,21.0,30.26,ENE,72,0.0,0.0,41,0.00,,CLR,0.00,VWS V14.01,2013-11-07 08:01:00,
2013-11-07 00:06:00,42.9,19.7,30.26,ENE,72,0.0,0.0,39,0.00,,CLR,0.00,VWS V14.01,2013-11-07 08:06:00,
2013-11-07 00:11:00,42.7,20.1,30.26,ENE,72,0.0,0.0,40,0.00,,CLR,0.00,VWS V14.01,2013-11-07 08:11:00,
2013-11-07 00:16:00,42.6,19.4,30.26,ENE,72,0.0,0.0,39,0.00,,CLR,0.00,VWS V14.01,2013-11-07 08:16:00,
2013-11-07 00:21:00,42.5,19.9,30.26,ENE,72,0.0,0.0,40,0.00,,CLR,0.00,VWS V14.01,2013-11-07 08:21:00,
2013-11-07 00:26:00,42.5,19.9,30.26,ENE,72,0.0,0.0,40,0.00,,CLR,0.00,VWS V14.01,2013-11-07 08:26:00,
2013-11-07 00:31:00,42.4,19.2,30.26,ENE,72,0.0,0.0,39,0.00,,CLR,0.00,VWS V14.01,2013-11-07 08:31:00,
2013-11-07 00:36:00,42.5,18.1,30.26,ENE,72,0.0,0.0,37,0.00,,CLR,0.00,VWS V14.01,2013-11-07 08:36:00,
2013-11-07 00:41:00,42.5,18.7,30.26,ENE,72,0.0,0.0,38,0.00,,CLR,0.00,VWS V14.01,2013-11-07 08:41:00,
2013-11-07 00:46:00,42.6,17.5,30.26,ENE,72,0.0,0.0,36,0.00,,CLR,0.00,VWS V14.01,2013-11-07 08:46:00,
2013-11-07 00:52:00,42.7,18.3,30.26,ENE,72,0.0,0.0,37,0.00,,CLR,0.00,VWS V14.01,2013-11-07 08:52:00,
2013-11-07 00:57:00,42.7,18.3,30.25,ENE,72,0.0,0.0,37,0.00,,CLR,0.00,VWS V14.01,2013-11-07 08:57:00,
2013-11-07 01:02:00,42.8,18.4,30.26,ENE,72,0.0,0.0,37,0.00,,CLR,0.00,VWS V14.01,2013-11-07 09:02:00,
2013-11-07 01:07:00,42.8,18.4,30.25,ENE,72,0.0,0.0,37,0.00,,CLR,0.00,VWS V14.01,2013-11-07 09:07:00,
2013-11-07 01:12:00,42.7,18.3,30.26,ENE,72,0.0,0.0,37,0.00,,CLR,0.00,VWS V14.01,2013-11-07 09:12:00,
2013-11-07 01:17:00,42.7,18.9,30.26,ENE,72,0.0,0.0,38,0.00,,CLR,0.00,VWS V14.01,2013-11-07 09:17:00,
2013-11-07 01:22:00,42.6,18.2,30.25,ENE,72,0.0,0.0,37,0.00,,CLR,0.00,VWS V14.01,2013-11-07 09:22:00,
2013-11-07 01:27:00,42.6,18.2,30.25,ENE,72,0.0,3.0,37,0.00,,CLR,0.00,VWS V14.01,2013-11-07 09:27:00,
2013-11-07 01:32:00,42.6,18.2,30.25,ENE,72,0.0,0.0,37,0.00,,CLR,0.00,VWS V14.01,2013-11-07 09:32:00,
2013-11-07 01:37:00,42.6,18.2,30.25,ENE,72,0.0,0.0,37,0.00,,CLR,0.00,VWS V14.01,2013-11-07 09:37:00,
2013-11-07 01:42:00,42.5,18.7,30.25,ENE,72,0.0,0.0,38,0.00,,CLR,0.00,VWS V14.01,2013-11-07 09:42:00,
2013-11-07 01:47:00,42.3,18.5,30.25,ENE,72,0.0,0.0,38,0.00,,CLR,0.00,VWS V14.01,2013-11-07 09:47:00,
2013-11-07 01:52:00,42.1,17.7,30.25,ENE,72,0.0,0.0,37,0.00,,CLR,0.00,VWS V14.01,2013-11-07 09:52:00,
2013-11-07 01:57:00,42.0,18.9,30.25,ENE,72,0.0,0.0,39,0.00,,CLR,0.00,VWS V14.01,2013-11-07 09:57:00,
2013-11-07 02:02:00,41.8,19.8,30.25,ENE,72,0.0,0.0,41,0.00,,CLR,0.00,VWS V14.01,2013-11-07 10:02:00,
2013-11-07 02:07:00,41.6,20.2,30.24,ENE,72,0.0,0.0,42,0.00,,CLR,0.00,VWS V14.01,2013-11-07 10:07:00,
2013-11-07 02:13:00,41.4,20.6,30.24,ENE,72,0.0,0.0,43,0.00,,CLR,0.00,VWS V14.01,2013-11-07 10:13:00,
2013-11-07 02:18:00,41.3,20.0,30.24,ENE,72,0.0,0.0,42,0.00,,CLR,0.00,VWS V14.01,2013-11-07 10:18:00,
2013-11-07 02:23:00,41.2,19.9,30.24,ENE,72,0.0,0.0,42,0.00,,CLR,0.00,VWS V14.01,2013-11-07 10:23:00,
2013-11-07 02:28:00,41.1,19.8,30.24,ENE,72,0.0,0.0,42,0.00,,CLR,0.00,VWS V14.01,2013-11-07 10:28:00,
2013-11-07 02:33:00,41.1,19.8,30.24,ENE,72,0.0,0.0,42,0.00,,CLR,0.00,VWS V14.01,2013-11-07 10:33:00,
2013-11-07 02:38:00,41.2,20.4,30.24,ENE,72,0.0,0.0,43,0.00,,CLR,0.00,VWS V14.01,2013-11-07 10:38:00,
2013-11-07 02:43:00,41.2,20.4,30.24,ENE,72,0.0,0.0,43,0.00,,CLR,0.00,VWS V14.01,2013-11-07 10:43:00,
2013-11-07 02:48:00,41.2,20.4,30.24,ENE,72,0.0,0.0,43,0.00,,CLR,0.00,VWS V14.01,2013-11-07 10:48:00,
2013-11-07 02:53:00,41.1,19.8,30.24,ENE,72,0.0,0.0,42,0.00,,CLR,0.00,VWS V14.01,2013-11-07 10:53:00,
2013-11-07 02:58:00,41.1,20.3,30.24,ENE,72,0.0,0.0,43,0.00,,CLR,0.00,VWS V14.01,2013-11-07 10:58:00,
2013-11-07 03:03:00,41.0,20.8,30.24,ENE,72,0.0,0.0,44,0.00,,CLR,0.00,VWS V14.01,2013-11-07 11:03:00,
2013-11-07 03:08:00,41.0,20.2,30.24,ENE,72,0.0,0.0,43,0.00,,CLR,0.00,VWS V14.01,2013-11-07 11:08:00,
2013-11-07 03:13:00,40.9,20.1,30.24,ENE,72,0.0,0.0,43,0.00,,CLR,0.00,VWS V14.01,2013-11-07 11:13:00,
2013-11-07 03:18:00,40.9,20.7,30.24,ENE,72,0.0,0.0,44,0.00,,CLR,0.00,VWS V14.01,2013-11-07 11:18:00,
2013-11-07 03:23:00,40.9,19.6,30.24,ENE,72,0.0,0.0,42,0.00,,CLR,0.00,VWS V14.01,2013-11-07 11:23:00,
2013-11-07 03:28:00,40.9,20.1,30.24,ENE,72,0.0,0.0,43,0.00,,CLR,0.00,VWS V14.01,2013-11-07 11:28:00,
2013-11-07 03:33:00,40.8,20.6,30.24,ENE,72,0.0,0.0,44,0.00,,CLR,0.00,VWS V14.01,2013-11-07 11:33:00,
2013-11-07 03:38:00,40.7,20.5,30.23,ENE,72,0.0,0.0,44,0.00,,CLR,0.00,VWS V14.01,2013-11-07 11:38:00,
2013-11-07 03:43:00,40.7,21.0,30.23,ENE,72,0.0,0.0,45,0.00,,CLR,0.00,VWS V14.01,2013-11-07 11:43:00,
2013-11-07 03:48:00,40.7,21.0,30.23,ENE,72,0.0,0.0,45,0.00,,CLR,0.00,VWS V14.01,2013-11-07 11:48:00,
2013-11-07 03:53:00,40.6,20.9,30.23,ENE,72,0.0,0.0,45,0.00,,CLR,0.00,VWS V14.01,2013-11-07 11:53:00,
2013-11-07 03:58:00,40.6,21.5,30.23,ENE,72,0.0,0.0,46,0.00,,CLR,0.00,VWS V14.01,2013-11-07 11:58:00,
2013-11-07 04:03:00,40.6,22.0,30.23,ENE,72,0.0,0.0,47,0.00,,CLR,0.00,VWS V14.01,2013-11-07 12:03:00,
2013-11-07 04:08:00,40.5,21.9,30.23,ENE,72,0.0,0.0,47,0.00,,CLR,0.00,VWS V14.01,2013-11-07 12:08:00,
2013-11-07 04:13:00,40.6,22.0,30.23,ENE,72,0.0,0.0,47,0.00,,CLR,0.00,VWS V14.01,2013-11-07 12:13:00,
2013-11-07 04:18:00,40.5,21.4,30.23,ENE,72,0.0,0.0,46,0.00,,CLR,0.00,VWS V14.01,2013-11-07 12:18:00,
2013-11-07 04:23:00,40.5,22.4,30.23,ENE,72,0.0,0.0,48,0.00,,CLR,0.00,VWS V14.01,2013-11-07 12:23:00,
2013-11-07 04:28:00,40.5,22.4,30.23,ENE,72,0.0,0.0,48,0.00,,CLR,0.00,VWS V14.01,2013-11-07 12:28:00,
2013-11-07 04:33:00,40.5,22.4,30.23,ENE,72,0.0,0.0,48,0.00,,CLR,0.00,VWS V14.01,2013-11-07 12:33:00,
2013-11-07 04:38:00,40.5,21.9,30.24,ENE,72,0.0,0.0,47,0.00,,CLR,0.00,VWS V14.01,2013-11-07 12:38:00,
2013-11-07 04:43:00,40.5,22.9,30.23,ENE,72,0.0,0.0,49,0.00,,CLR,0.00,VWS V14.01,2013-11-07 12:43:00,
2013-11-07 04:48:00,40.6,22.5,30.23,ENE,72,0.0,0.0,48,0.00,,CLR,0.00,VWS V14.01,2013-11-07 12:48:00,
2013-11-07 04:54:00,40.7,22.1,30.23,ENE,72,0.0,0.0,47,0.00,,CLR,0.00,VWS V14.01,2013-11-07 12:54:00,
2013-11-07 04:59:00,40.8,22.6,30.23,ENE,72,0.0,0.0,48,0.00,,CLR,0.00,VWS V14.01,2013-11-07 12:59:00,
2013-11-07 05:04:00,40.9,22.2,30.23,ENE,72,0.0,0.0,47,0.00,,CLR,0.00,VWS V14.01,2013-11-07 13:04:00,
2013-11-07 05:09:00,40.9,22.2,30.23,ENE,72,0.0,0.0,47,0.00,,CLR,0.00,VWS V14.01,2013-11-07 13:09:00,
2013-11-07 05:14:00,41.0,22.3,30.23,ENE,72,0.0,0.0,47,0.00,,CLR,0.00,VWS V14.01,2013-11-07 13:14:00,
2013-11-07 05:19:00,41.0,24.3,30.23,ENE,72,0.0,0.0,51,0.00,,CLR,0.00,VWS V14.01,2013-11-07 13:19:00,
2013-11-07 05:24:00,40.9,21.7,30.24,ENE,72,0.0,0.0,46,0.00,,CLR,0.00,VWS V14.01,2013-11-07 13:24:00,
2013-11-07 05:29:00,40.8,22.6,30.24,ENE,72,0.0,0.0,48,0.00,,CLR,0.00,VWS V14.01,2013-11-07 13:29:00,
2013-11-07 05:34:00,40.7,22.5,30.24,ENE,72,0.0,0.0,48,0.00,,CLR,0.00,VWS V14.01,2013-11-07 13:34:00,
2013-11-07 05:39:00,40.5,22.4,30.24,ENE,72,0.0,0.0,48,0.00,,CLR,0.00,VWS V14.01,2013-11-07 13:39:00,
2013-11-07 05:44:00,40.4,22.3,30.24,ENE,72,0.0,0.0,48,0.00,,CLR,0.00,VWS V14.01,2013-11-07 13:44:00,
2013-11-07 05:49:00,40.3,22.7,30.24,ENE,72,0.0,0.0,49,0.00,,CLR,0.00,VWS V14.01,2013-11-07 13:49:00,
2013-11-07 05:54:00,40.1,22.5,30.24,ENE,72,0.0,0.0,49,0.00,,CLR,0.00,VWS V14.01,2013-11-07 13:54:00,
2013-11-07 05:59:00,40.0,22.4,30.23,ENE,72,0.0,0.0,49,0.00,,CLR,0.00,VWS V14.01,2013-11-07 13:59:00,
2013-11-07 06:05:00,39.8,22.7,30.23,ENE,72,0.0,0.0,50,0.00,,CLR,0.00,VWS V14.01,2013-11-07 14:05:00,
2013-11-07 06:10:00,39.7,22.6,30.23,ENE,72,0.0,0.0,50,0.00,,CLR,0.00,VWS V14.01,2013-11-07 14:10:00,
2013-11-07 06:15:00,39.6,22.0,30.23,ENE,72,0.0,0.0,49,0.00,,CLR,0.00,VWS V14.01,2013-11-07 14:15:00,
2013-11-07 06:20:00,39.4,22.3,30.23,ENE,72,0.0,0.0,50,0.00,,CLR,0.00,VWS V14.01,2013-11-07 14:20:00,
2013-11-07 06:25:00,39.2,23.1,30.23,ENE,72,0.0,0.0,52,0.00,,CLR,0.00,VWS V14.01,2013-11-07 14:25:00,
2013-11-07 06:30:00,39.1,23.0,30.23,ENE,72,0.0,0.0,52,0.00,,CLR,0.00,VWS V14.01,2013-11-07 14:30:00,
2013-11-07 06:35:00,38.9,22.8,30.23,ENE,72,0.0,0.0,52,0.00,,CLR,0.00,VWS V14.01,2013-11-07 14:35:00,
2013-11-07 06:40:00,38.7,23.1,30.23,ENE,72,0.0,0.0,53,0.00,,CLR,0.00,VWS V14.01,2013-11-07 14:40:00,
2013-11-07 06:45:00,38.7,23.5,30.23,ENE,72,0.0,0.0,54,0.00,,CLR,0.00,VWS V14.01,2013-11-07 14:45:00,
2013-11-07 06:50:00,38.5,22.4,30.24,ENE,72,0.0,0.0,52,0.00,,CLR,0.00,VWS V14.01,2013-11-07 14:50:00,
2013-11-07 06:55:00,38.5,22.0,30.24,ENE,72,0.0,0.0,51,0.00,,CLR,0.00,VWS V14.01,2013-11-07 14:55:00,
2013-11-07 07:00:00,38.5,22.9,30.24,ENE,72,0.0,0.0,53,0.00,,CLR,0.00,VWS V14.01,2013-11-07 15:00:00,
2013-11-07 07:05:00,38.6,23.4,30.24,ENE,72,0.0,0.0,54,0.00,,CLR,0.00,VWS V14.01,2013-11-07 15:05:00,
2013-11-07 07:10:00,38.9,22.8,30.24,ENE,72,0.0,0.0,52,0.00,,CLR,0.00,VWS V14.01,2013-11-07 15:10:00,
2013-11-07 07:15:00,39.3,22.7,30.24,ENE,72,0.0,0.0,51,0.00,,CLR,0.00,VWS V14.01,2013-11-07 15:15:00,
2013-11-07 07:20:00,40.1,23.4,30.24,ENE,72,0.0,0.0,51,0.00,,CLR,0.00,VWS V14.01,2013-11-07 15:20:00,
2013-11-07 07:25:00,40.6,22.5,30.24,ENE,72,0.0,0.0,48,0.00,,CLR,0.00,VWS V14.01,2013-11-07 15:25:00,
2013-11-07 07:30:00,41.6,22.4,30.25,ENE,72,0.0,0.0,46,0.00,,CLR,0.00,VWS V14.01,2013-11-07 15:30:00,
2013-11-07 07:36:00,42.0,22.7,30.25,ENE,70,0.0,0.0,46,0.00,,CLR,0.00,VWS V14.01,2013-11-07 15:36:00,
2013-11-07 07:41:00,42.7,21.8,30.25,ENE,69,0.0,0.0,43,0.00,,CLR,0.00,VWS V14.01,2013-11-07 15:41:00,
2013-11-07 07:46:00,43.0,21.5,30.25,ENE,69,0.0,0.0,42,0.00,,CLR,0.00,VWS V14.01,2013-11-07 15:46:00,
2013-11-07 07:51:00,43.5,19.0,30.25,ENE,69,0.0,0.0,37,0.00,,CLR,0.00,VWS V14.01,2013-11-07 15:51:00,
2013-11-07 07:56:00,43.8,18.6,30.25,ENE,69,0.0,0.0,36,0.00,,CLR,0.00,VWS V14.01,2013-11-07 15:56:00,
2013-11-07 08:01:00,44.5,19.2,30.25,ENE,69,0.0,0.0,36,0.00,,CLR,0.00,VWS V14.01,2013-11-07 16:01:00,
2013-11-07 08:06:00,45.0,17.6,30.25,ENE,69,0.0,0.0,33,0.00,,CLR,0.00,VWS V14.01,2013-11-07 16:06:00,
2013-11-07 08:11:00,46.0,19.2,30.25,ENE,69,0.0,0.0,34,0.00,,CLR,0.00,VWS V14.01,2013-11-07 16:11:00,
2013-11-07 08:16:00,46.4,19.6,30.26,ENE,69,0.0,0.0,34,0.00,,CLR,0.00,VWS V14.01,2013-11-07 16:16:00,
2013-11-07 08:21:00,47.4,20.5,30.26,ENE,69,0.0,0.0,34,0.00,,CLR,0.00,VWS V14.01,2013-11-07 16:21:00,
2013-11-07 08:26:00,47.9,20.9,30.26,ENE,69,0.0,0.0,34,0.00,,CLR,0.00,VWS V14.01,2013-11-07 16:26:00,
2013-11-07 08:31:00,48.8,19.5,30.25,ENE,69,0.0,0.0,31,0.00,,CLR,0.00,VWS V14.01,2013-11-07 16:31:00,
2013-11-07 08:36:00,49.3,20.0,30.25,ENE,69,0.0,0.0,31,0.00,,CLR,0.00,VWS V14.01,2013-11-07 16:36:00,
2013-11-07 08:41:00,50.1,19.9,30.25,ENE,69,0.0,0.0,30,0.00,,CLR,0.00,VWS V14.01,2013-11-07 16:41:00,
2013-11-07 08:46:00,50.5,20.2,30.25,ENE,69,0.0,0.0,30,0.00,,CLR,0.00,VWS V14.01,2013-11-07 16:46:00,
2013-11-07 08:51:00,51.8,21.4,30.25,ENE,69,0.0,0.0,30,0.00,,CLR,0.00,VWS V14.01,2013-11-07 16:51:00,
2013-11-07 08:56:00,52.3,19.3,30.25,ENE,69,0.0,0.0,27,0.00,,CLR,0.00,VWS V14.01,2013-11-07 16:56:00,
2013-11-07 09:02:00,54.2,21.0,30.25,ENE,69,0.0,0.0,27,0.00,,CLR,0.00,VWS V14.01,2013-11-07 17:02:00,
2013-11-07 09:07:00,54.8,19.7,30.25,ENE,69,0.0,1.0,25,0.00,,CLR,0.00,VWS V14.01,2013-11-07 17:07:00,
2013-11-07 09:12:00,56.2,20.9,30.25,ENE,69,0.0,1.0,25,0.00,,CLR,0.00,VWS V14.01,2013-11-07 17:12:00,
2013-11-07 09:17:00,56.4,20.1,30.25,ENE,69,0.0,1.0,24,0.00,,CLR,0.00,VWS V14.01,2013-11-07 17:17:00,
2013-11-07 09:22:00,57.0,21.5,30.25,East,98,0.0,0.0,25,0.00,,CLR,0.00,VWS V14.01,2013-11-07 17:22:00,
2013-11-07 09:27:00,57.2,21.7,30.25,East,98,0.0,0.0,25,0.00,,CLR,0.00,VWS V14.01,2013-11-07 17:27:00,
2013-11-07 09:32:00,58.3,20.7,30.24,East,98,2.0,4.0,23,0.00,,CLR,0.00,VWS V14.01,2013-11-07 17:32:00,
2013-11-07 09:37:00,58.6,19.9,30.24,East,98,0.0,4.0,22,0.00,,CLR,0.00,VWS V14.01,2013-11-07 17:37:00,
2013-11-07 09:42:00,59.6,19.6,30.24,East,98,0.0,0.0,21,0.00,,CLR,0.00,VWS V14.01,2013-11-07 17:42:00,
2013-11-07 09:47:00,59.8,19.8,30.24,East,98,0.0,1.0,21,0.00,,CLR,0.00,VWS V14.01,2013-11-07 17:47:00,
2013-11-07 09:52:00,60.5,19.2,30.24,East,98,0.0,4.0,20,0.00,,CLR,0.00,VWS V14.01,2013-11-07 17:52:00,
2013-11-07 09:57:00,60.8,19.5,30.24,East,98,0.0,4.0,20,0.00,,CLR,0.00,VWS V14.01,2013-11-07 17:57:00,
2013-11-07 10:00:00,61.2,19.8,30.23,East,98,0.0,4.0,20,0.00,,CLR,0.00,VWS V14.01,2013-11-07 18:00:00,
2013-11-07 10:05:00,61.6,19.0,30.23,East,98,0.0,0.0,19,0.00,,CLR,0.00,VWS V14.01,2013-11-07 18:05:00,
2013-11-07 10:11:00,62.0,18.0,30.23,East,98,0.0,0.0,18,0.00,,CLR,0.00,VWS V14.01,2013-11-07 18:11:00,
2013-11-07 10:16:00,62.2,19.5,30.23,East,98,0.0,0.0,19,0.00,,CLR,0.00,VWS V14.01,2013-11-07 18:16:00,
2013-11-07 10:21:00,62.5,17.1,30.23,East,98,0.0,1.0,17,0.00,,CLR,0.00,VWS V14.01,2013-11-07 18:21:00,
2013-11-07 10:26:00,62.3,17.0,30.22,East,97,0.0,5.0,17,0.00,,CLR,0.00,VWS V14.01,2013-11-07 18:26:00,
2013-11-07 10:31:00,62.6,17.2,30.22,East,97,0.0,1.0,17,0.00,,CLR,0.00,VWS V14.01,2013-11-07 18:31:00,
2013-11-07 10:36:00,62.9,18.8,30.23,East,96,0.0,2.0,18,0.00,,CLR,0.00,VWS V14.01,2013-11-07 18:36:00,
2013-11-07 10:41:00,63.6,18.0,30.22,East,94,0.0,0.0,17,0.00,,CLR,0.00,VWS V14.01,2013-11-07 18:41:00,
2013-11-07 10:46:00,64.2,18.5,30.22,East,94,0.0,0.0,17,0.00,,CLR,0.00,VWS V14.01,2013-11-07 18:46:00,
2013-11-07 10:51:00,65.0,17.8,30.22,East,94,0.0,0.0,16,0.00,,CLR,0.00,VWS V14.01,2013-11-07 18:51:00,
2013-11-07 10:56:00,65.1,17.8,30.22,East,94,0.0,0.0,16,0.00,,CLR,0.00,VWS V14.01,2013-11-07 18:56:00,
2013-11-07 11:01:00,64.8,17.6,30.21,East,94,0.0,1.0,16,0.00,,CLR,0.00,VWS V14.01,2013-11-07 19:01:00,
2013-11-07 11:06:00,64.8,21.6,30.21,East,94,0.0,2.0,19,0.00,,CLR,0.00,VWS V14.01,2013-11-07 19:06:00,
2013-11-07 11:11:00,65.1,17.8,30.20,East,93,0.0,5.0,16,0.00,,CLR,0.00,VWS V14.01,2013-11-07 19:11:00,
2013-11-07 11:16:00,65.3,24.4,30.20,East,93,0.0,5.0,21,0.00,,CLR,0.00,VWS V14.01,2013-11-07 19:16:00,
2013-11-07 11:21:00,65.7,19.7,30.20,East,93,0.0,0.0,17,0.00,,CLR,0.00,VWS V14.01,2013-11-07 19:21:00,
2013-11-07 11:26:00,66.0,22.6,30.19,East,93,0.0,0.0,19,0.00,,CLR,0.00,VWS V14.01,2013-11-07 19:26:00,
2013-11-07 11:31:00,66.2,18.7,30.19,East,93,0.0,2.0,16,0.00,,CLR,0.00,VWS V14.01,2013-11-07 19:31:00,
2013-11-07 11:37:00,66.3,20.2,30.19,East,93,1.0,2.0,17,0.00,,CLR,0.00,VWS V14.01,2013-11-07 19:37:00,
2013-11-07 11:42:00,66.5,19.0,30.18,East,93,0.0,0.0,16,0.00,,CLR,0.00,VWS V14.01,2013-11-07 19:42:00,
2013-11-07 11:47:00,66.8,20.6,30.18,East,93,0.0,0.0,17,0.00,,CLR,0.00,VWS V14.01,2013-11-07 19:47:00,
2013-11-07 11:52:00,67.3,22.4,30.18,East,92,0.0,2.0,18,0.00,,CLR,0.00,VWS V14.01,2013-11-07 19:52:00,
2013-11-07 11:57:00,67.4,21.1,30.18,East,92,0.0,4.0,17,0.00,,CLR,0.00,VWS V14.01,2013-11-07 19:57:00,
2013-11-07 12:02:00,67.4,22.5,30.17,East,92,0.0,1.0,18,0.00,,CLR,0.00,VWS V14.01,2013-11-07 20:02:00,
2013-11-07 12:07:00,67.4,21.1,30.17,East,92,0.0,5.0,17,0.00,,CLR,0.00,VWS V14.01,2013-11-07 20:07:00,
2013-11-07 12:12:00,67.9,21.5,30.17,ENE,72,3.0,4.0,17,0.00,,CLR,0.00,VWS V14.01,2013-11-07 20:12:00,
2013-11-07 12:17:00,67.9,22.9,30.16,ENE,72,0.0,4.0,18,0.00,,CLR,0.00,VWS V14.01,2013-11-07 20:17:00,
2013-11-07 12:22:00,68.0,21.6,30.16,ENE,72,4.0,4.0,17,0.00,,CLR,0.00,VWS V14.01,2013-11-07 20:22:00,
2013-11-07 12:27:00,68.0,21.6,30.16,ENE,71,0.0,4.0,17,0.00,,CLR,0.00,VWS V14.01,2013-11-07 20:27:00,
2013-11-07 12:32:00,68.3,21.8,30.15,ENE,67,5.0,5.0,17,0.00,,CLR,0.00,VWS V14.01,2013-11-07 20:32:00,
2013-11-07 12:37:00,68.3,21.8,30.15,ENE,67,0.0,5.0,17,0.00,,CLR,0.00,VWS V14.01,2013-11-07 20:37:00,
2013-11-07 12:42:00,68.8,22.2,30.14,ENE,66,2.0,4.0,17,0.00,,CLR,0.00,VWS V14.01,2013-11-07 20:42:00,
2013-11-07 12:47:00,68.9,23.7,30.14,ENE,66,2.0,4.0,18,0.00,,CLR,0.00,VWS V14.01,2013-11-07 20:47:00,
2013-11-07 12:52:00,69.1,22.5,30.14,ENE,65,1.0,3.0,17,0.00,,CLR,0.00,VWS V14.01,2013-11-07 20:52:00,
2013-11-07 12:57:00,69.0,21.0,30.14,ENE,63,2.0,3.0,16,0.00,,CLR,0.00,VWS V14.01,2013-11-07 20:57:00,
2013-11-07 13:03:00,68.7,22.2,30.14,ENE,61,0.0,4.0,17,0.00,,CLR,0.00,VWS V14.01,2013-11-07 21:03:00,
2013-11-07 13:08:00,68.7,22.2,30.13,ENE,59,0.0,4.0,17,0.00,,CLR,0.00,VWS V14.01,2013-11-07 21:08:00,
2013-11-07 13:13:00,69.1,22.5,30.13,NE,55,3.0,3.0,17,0.00,,CLR,0.00,VWS V14.01,2013-11-07 21:13:00,
2013-11-07 13:18:00,69.2,21.1,30.13,NE,55,2.0,3.0,16,0.00,,CLR,0.00,VWS V14.01,2013-11-07 21:18:00,
2013-11-07 13:23:00,69.0,21.0,30.13,NE,51,0.0,3.0,16,0.00,,CLR,0.00,VWS V14.01,2013-11-07 21:23:00,
2013-11-07 13:28:00,69.0,22.4,30.13,NE,53,0.0,5.0,17,0.00,,CLR,0.00,VWS V14.01,2013-11-07 21:28:00,
2013-11-07 13:33:00,69.1,22.5,30.12,NE,52,0.0,0.0,17,0.00,,CLR,0.00,VWS V14.01,2013-11-07 21:33:00,
2013-11-07 13:38:00,69.1,22.5,30.12,NE,52,0.0,2.0,17,0.00,,CLR,0.00,VWS V14.01,2013-11-07 21:38:00,
2013-11-07 13:43:00,69.2,23.9,30.12,NE,53,0.0,4.0,18,0.00,,CLR,0.00,VWS V14.01,2013-11-07 21:43:00,
2013-11-07 13:48:00,69.2,21.1,30.12,ENE,61,0.0,4.0,16,0.00,,CLR,0.00,VWS V14.01,2013-11-07 21:48:00,
2013-11-07 13:53:00,69.2,22.6,30.12,ENE,61,5.0,5.0,17,0.00,,CLR,0.00,VWS V14.01,2013-11-07 21:53:00,
2013-11-07 13:58:00,69.2,22.6,30.12,ENE,61,3.0,6.0,17,0.00,,CLR,0.00,VWS V14.01,2013-11-07 21:58:00,
2013-11-07 14:03:00,69.2,21.1,30.12,ENE,61,0.0,3.0,16,0.00,,CLR,0.00,VWS V14.01,2013-11-07 22:03:00,
2013-11-07 14:08:00,69.0,19.5,30.12,ENE,61,0.0,3.0,15,0.00,,CLR,0.00,VWS V14.01,2013-11-07 22:08:00,
2013-11-07 14:13:00,68.9,25.0,30.12,ENE,61,0.0,0.0,19,0.00,,CLR,0.00,VWS V14.01,2013-11-07 22:13:00,
2013-11-07 14:19:00,68.9,22.3,30.11,ENE,61,2.0,2.0,17,0.00,,CLR,0.00,VWS V14.01,2013-11-07 22:19:00,
2013-11-07 14:24:00,68.9,20.9,30.11,ENE,61,0.0,5.0,16,0.00,,CLR,0.00,VWS V14.01,2013-11-07 22:24:00,
2013-11-07 14:29:00,69.0,21.0,30.11,ENE,61,1.0,5.0,16,0.00,,CLR,0.00,VWS V14.01,2013-11-07 22:29:00,
2013-11-07 14:34:00,69.2,21.1,30.11,ENE,61,0.0,0.0,16,0.00,,CLR,0.00,VWS V14.01,2013-11-07 22:34:00,
2013-11-07 14:39:00,69.2,19.6,30.10,ENE,61,0.0,3.0,15,0.00,,CLR,0.00,VWS V14.01,2013-11-07 22:39:00,
2013-11-07 14:44:00,68.9,22.3,30.10,East,98,0.0,4.0,17,0.00,,CLR,0.00,VWS V14.01,2013-11-07 22:44:00,
2013-11-07 14:49:00,68.6,19.1,30.10,East,96,0.0,5.0,15,0.00,,CLR,0.00,VWS V14.01,2013-11-07 22:49:00,
2013-11-07 14:54:00,68.5,20.6,30.10,East,96,0.0,4.0,16,0.00,,CLR,0.00,VWS V14.01,2013-11-07 22:54:00,
2013-11-07 14:59:00,68.6,20.6,30.10,East,96,4.0,6.0,16,0.00,,CLR,0.00,VWS V14.01,2013-11-07 22:59:00,
2013-11-07 15:04:00,68.9,20.9,30.10,East,96,0.0,7.0,16,0.00,,CLR,0.00,VWS V14.01,2013-11-07 23:04:00,
2013-11-07 15:09:00,69.2,21.1,30.10,East,96,0.0,7.0,16,0.00,,CLR,0.00,VWS V14.01,2013-11-07 23:09:00,
2013-11-07 15:14:00,69.7,21.5,30.10,East,96,0.0,2.0,16,0.00,,CLR,0.00,VWS V14.01,2013-11-07 23:14:00,
2013-11-07 15:19:00,70.0,20.3,30.09,East,96,0.0,2.0,15,0.00,,CLR,0.00,VWS V14.01,2013-11-07 23:19:00,
2013-11-07 15:24:00,70.2,20.4,30.09,East,96,0.0,1.0,15,0.00,,CLR,0.00,VWS V14.01,2013-11-07 23:24:00,
2013-11-07 15:29:00,70.0,21.8,30.09,East,96,0.0,1.0,16,0.00,,CLR,0.00,VWS V14.01,2013-11-07 23:29:00,
2013-11-07 15:34:00,69.7,20.0,30.09,East,96,0.0,2.0,15,0.00,,CLR,0.00,VWS V14.01,2013-11-07 23:34:00,
2013-11-07 15:39:00,69.6,22.9,30.09,East,96,0.0,2.0,17,0.00,,CLR,0.00,VWS V14.01,2013-11-07 23:39:00,
2013-11-07 15:45:00,69.5,22.8,30.09,East,96,0.0,0.0,17,0.00,,CLR,0.00,VWS V14.01,2013-11-07 23:45:00,
2013-11-07 15:50:00,69.3,21.2,30.09,East,96,0.0,0.0,16,0.00,,CLR,0.00,VWS V14.01,2013-11-07 23:50:00,
2013-11-07 15:55:00,69.1,21.1,30.09,East,96,0.0,0.0,16,0.00,,CLR,0.00,VWS V14.01,2013-11-07 23:55:00,
2013-11-07 16:00:00,68.8,22.2,30.09,East,96,0.0,0.0,17,0.00,,CLR,0.00,VWS V14.01,2013-11-08 00:00:00,
2013-11-07 16:05:00,68.4,23.3,30.08,East,96,0.0,0.0,18,0.00,,CLR,0.00,VWS V14.01,2013-11-08 00:05:00,
2013-11-07 16:10:00,67.9,25.4,30.09,East,96,0.0,0.0,20,0.00,,CLR,0.00,VWS V14.01,2013-11-08 00:10:00,
2013-11-07 16:15:00,67.6,25.1,30.09,East,96,0.0,0.0,20,0.00,,CLR,0.00,VWS V14.01,2013-11-08 00:15:00,
2013-11-07 16:20:00,67.2,27.1,30.08,East,96,0.0,0.0,22,0.00,,CLR,0.00,VWS V14.01,2013-11-08 00:20:00,
2013-11-07 16:25:00,66.9,26.9,30.08,East,96,0.0,0.0,22,0.00,,CLR,0.00,VWS V14.01,2013-11-08 00:25:00,
2013-11-07 16:30:00,66.5,26.5,30.08,East,96,0.0,0.0,22,0.00,,CLR,0.00,VWS V14.01,2013-11-08 00:30:00,
2013-11-07 16:35:00,66.0,26.1,30.08,East,96,0.0,0.0,22,0.00,,CLR,0.00,VWS V14.01,2013-11-08 00:35:00,
2013-11-07 16:40:00,65.5,27.8,30.08,East,96,0.0,0.0,24,0.00,,CLR,0.00,VWS V14.01,2013-11-08 00:40:00,
2013-11-07 16:45:00,65.0,28.4,30.08,East,96,0.0,0.0,25,0.00,,CLR,0.00,VWS V14.01,2013-11-08 00:45:00,
2013-11-07 16:50:00,64.3,27.8,30.08,East,96,0.0,0.0,25,0.00,,CLR,0.00,VWS V14.01,2013-11-08 00:50:00,
2013-11-07 16:55:00,63.6,28.1,30.08,East,96,0.0,0.0,26,0.00,,CLR,0.00,VWS V14.01,2013-11-08 00:55:00,
2013-11-07 17:00:00,63.0,27.6,30.08,East,96,0.0,0.0,26,0.00,,CLR,0.00,VWS V14.01,2013-11-08 01:00:00,
2013-11-07 17:05:00,62.3,28.8,30.08,East,96,0.0,0.0,28,0.00,,CLR,0.00,VWS V14.01,2013-11-08 01:05:00,
2013-11-07 17:10:00,61.6,28.2,30.08,East,96,0.0,0.0,28,0.00,,CLR,0.00,VWS V14.01,2013-11-08 01:10:00,
2013-11-07 17:16:00,60.9,27.6,30.08,East,96,0.0,0.0,28,0.00,,CLR,0.00,VWS V14.01,2013-11-08 01:16:00,
2013-11-07 17:21:00,60.3,27.1,30.08,East,96,0.0,0.0,28,0.00,,CLR,0.00,VWS V14.01,2013-11-08 01:21:00,
2013-11-07 17:26:00,59.8,26.6,30.08,East,96,0.0,1.0,28,0.00,,CLR,0.00,VWS V14.01,2013-11-08 01:26:00,
2013-11-07 17:31:00,59.4,26.3,30.07,East,96,0.0,0.0,28,0.00,,CLR,0.00,VWS V14.01,2013-11-08 01:31:00,
2013-11-07 17:36:00,59.0,26.0,30.07,East,96,0.0,0.0,28,0.00,,CLR,0.00,VWS V14.01,2013-11-08 01:36:00,
2013-11-07 17:41:00,58.6,25.6,30.08,East,96,0.0,0.0,28,0.00,,CLR,0.00,VWS V14.01,2013-11-08 01:41:00,
2013-11-07 17:46:00,58.3,27.0,30.08,East,96,0.0,0.0,30,0.00,,CLR,0.00,VWS V14.01,2013-11-08 01:46:00,
2013-11-07 17:51:00,57.9,27.5,30.08,East,96,0.0,0.0,31,0.00,,CLR,0.00,VWS V14.01,2013-11-08 01:51:00,
2013-11-07 17:56:00,57.5,27.9,30.08,East,96,0.0,0.0,32,0.00,,CLR,0.00,VWS V14.01,2013-11-08 01:56:00,
2013-11-07 18:01:00,57.0,28.2,30.08,East,96,0.0,0.0,33,0.00,,CLR,0.00,VWS V14.01,2013-11-08 02:01:00,
2013-11-07 18:06:00,56.6,27.1,30.08,East,96,0.0,0.0,32,0.00,,CLR,0.00,VWS V14.01,2013-11-08 02:06:00,
2013-11-07 18:11:00,56.2,26.0,30.08,East,96,0.0,0.0,31,0.00,,CLR,0.00,VWS V14.01,2013-11-08 02:11:00,
2013-11-07 18:16:00,55.8,26.4,30.08,East,96,0.0,0.0,32,0.00,,CLR,0.00,VWS V14.01,2013-11-08 02:16:00,
2013-11-07 18:21:00,55.5,26.9,30.08,East,96,0.0,0.0,33,0.00,,CLR,0.00,VWS V14.01,2013-11-08 02:21:00,
2013-11-07 18:26:00,55.2,27.3,30.08,East,96,0.0,0.0,34,0.00,,CLR,0.00,VWS V14.01,2013-11-08 02:26:00,
2013-11-07 18:32:00,55.0,26.5,30.08,East,96,0.0,0.0,33,0.00,,CLR,0.00,VWS V14.01,2013-11-08 02:32:00,
2013-11-07 18:37:00,54.9,26.4,30.08,East,96,0.0,0.0,33,0.00,,CLR,0.00,VWS V14.01,2013-11-08 02:37:00,
2013-11-07 18:42:00,54.7,26.2,30.08,East,96,1.0,1.0,33,0.00,,CLR,0.00,VWS V14.01,2013-11-08 02:42:00,
2013-11-07 18:47:00,54.8,25.5,30.08,East,97,0.0,2.0,32,0.00,,CLR,0.00,VWS V14.01,2013-11-08 02:47:00,
2013-11-07 18:52:00,54.8,24.0,30.08,East,97,0.0,1.0,30,0.00,,CLR,0.00,VWS V14.01,2013-11-08 02:52:00,
2013-11-07 18:57:00,54.8,24.8,30.08,East,97,0.0,1.0,31,0.00,,CLR,0.00,VWS V14.01,2013-11-08 02:57:00,
2013-11-07 19:02:00,54.6,23.8,30.08,East,97,0.0,0.0,30,0.00,,CLR,0.00,VWS V14.01,2013-11-08 03:02:00,
2013-11-07 19:07:00,54.5,24.5,30.08,East,97,0.0,0.0,31,0.00,,CLR,0.00,VWS V14.01,2013-11-08 03:07:00,
2013-11-07 19:12:00,54.3,25.1,30.08,East,97,0.0,0.0,32,0.00,,CLR,0.00,VWS V14.01,2013-11-08 03:12:00,
2013-11-07 19:17:00,54.1,24.9,30.07,East,97,0.0,0.0,32,0.00,,CLR,0.00,VWS V14.01,2013-11-08 03:17:00,
2013-11-07 19:22:00,53.9,24.7,30.07,East,97,0.0,0.0,32,0.00,,CLR,0.00,VWS V14.01,2013-11-08 03:22:00,
2013-11-07 19:27:00,53.8,24.6,30.07,East,97,0.0,0.0,32,0.00,,CLR,0.00,VWS V14.01,2013-11-08 03:27:00,
2013-11-07 19:32:00,53.6,23.7,30.07,East,97,0.0,2.0,31,0.00,,CLR,0.00,VWS V14.01,2013-11-08 03:32:00,
2013-11-07 19:37:00,53.4,24.3,30.08,East,97,0.0,2.0,32,0.00,,CLR,0.00,VWS V14.01,2013-11-08 03:37:00,
2013-11-07 19:42:00,53.3,24.2,30.08,East,97,0.0,0.0,32,0.00,,CLR,0.00,VWS V14.01,2013-11-08 03:42:00,
2013-11-07 19:47:00,53.2,24.1,30.07,East,97,0.0,0.0,32,0.00,,CLR,0.00,VWS V14.01,2013-11-08 03:47:00,
2013-11-07 19:52:00,53.1,24.0,30.08,East,97,0.0,0.0,32,0.00,,CLR,0.00,VWS V14.01,2013-11-08 03:52:00,
2013-11-07 19:58:00,52.9,23.9,30.07,East,97,0.0,0.0,32,0.00,,CLR,0.00,VWS V14.01,2013-11-08 03:58:00,
2013-11-07 20:03:00,52.8,23.8,30.07,East,97,0.0,1.0,32,0.00,,CLR,0.00,VWS V14.01,2013-11-08 04:03:00,
2013-11-07 20:08:00,52.7,22.9,30.08,East,97,0.0,1.0,31,0.00,,CLR,0.00,VWS V14.01,2013-11-08 04:08:00,
2013-11-07 20:13:00,52.7,23.7,30.08,East,97,0.0,0.0,32,0.00,,CLR,0.00,VWS V14.01,2013-11-08 04:13:00,
2013-11-07 20:18:00,52.7,24.4,30.08,East,97,0.0,2.0,33,0.00,,CLR,0.00,VWS V14.01,2013-11-08 04:18:00,
2013-11-07 20:23:00,52.5,24.2,30.07,East,97,0.0,0.0,33,0.00,,CLR,0.00,VWS V14.01,2013-11-08 04:23:00,
2013-11-07 20:28:00,52.3,24.8,30.07,East,97,0.0,0.0,34,0.00,,CLR,0.00,VWS V14.01,2013-11-08 04:28:00,
2013-11-07 20:33:00,52.1,24.6,30.07,East,97,0.0,0.0,34,0.00,,CLR,0.00,VWS V14.01,2013-11-08 04:33:00,
2013-11-07 20:38:00,51.8,25.0,30.07,East,97,0.0,0.0,35,0.00,,CLR,0.00,VWS V14.01,2013-11-08 04:38:00,
2013-11-07 20:43:00,51.5,25.5,30.07,East,97,0.0,0.0,36,0.00,,CLR,0.00,VWS V14.01,2013-11-08 04:43:00,
2013-11-07 20:48:00,51.3,25.3,30.07,East,97,0.0,0.0,36,0.00,,CLR,0.00,VWS V14.01,2013-11-08 04:48:00,
2013-11-07 20:53:00,51.0,25.0,30.07,East,97,0.0,0.0,36,0.00,,CLR,0.00,VWS V14.01,2013-11-08 04:53:00,
2013-11-07 20:58:00,50.8,25.5,30.07,East,97,0.0,0.0,37,0.00,,CLR,0.00,VWS V14.01,2013-11-08 04:58:00,
2013-11-07 21:01:00,50.7,25.4,30.07,East,97,0.0,0.0,37,0.00,,CLR,0.00,VWS V14.01,2013-11-08 05:01:00,
2013-11-07 21:02:00,50.6,25.3,30.07,East,97,0.0,0.0,37,0.00,,CLR,0.00,VWS V14.01,2013-11-08 05:02:00,
2013-11-07 21:04:00,50.5,25.9,30.07,East,97,0.0,0.0,38,0.00,,CLR,0.00,VWS V14.01,2013-11-08 05:04:00,
2013-11-07 21:05:00,50.5,25.9,30.07,East,97,0.0,0.0,38,0.00,,CLR,0.00,VWS V14.01,2013-11-08 05:05:00,
2013-11-07 21:07:00,50.4,25.8,30.07,East,97,0.0,0.0,38,0.00,,CLR,0.00,VWS V14.01,2013-11-08 05:07:00,
2013-11-07 21:10:00,50.3,26.3,30.07,East,97,0.0,0.0,39,0.00,,CLR,0.00,VWS V14.01,2013-11-08 05:10:00,
2013-11-07 21:15:00,50.1,26.7,30.07,East,97,0.0,0.0,40,0.00,,CLR,0.00,VWS V14.01,2013-11-08 05:15:00,
2013-11-07 21:21:00,49.8,25.9,30.07,East,97,0.0,0.0,39,0.00,,CLR,0.00,VWS V14.01,2013-11-08 05:21:00,
2013-11-07 21:26:00,49.6,25.7,30.07,East,97,0.0,0.0,39,0.00,,CLR,0.00,VWS V14.01,2013-11-08 05:26:00,
2013-11-07 21:31:00,49.4,24.9,30.07,East,97,0.0,0.0,38,0.00,,CLR,0.00,VWS V14.01,2013-11-08 05:31:00,
2013-11-07 21:36:00,49.4,25.5,30.07,East,97,0.0,0.0,39,0.00,,CLR,0.00,VWS V14.01,2013-11-08 05:36:00,
2013-11-07 21:41:00,49.4,26.7,30.08,East,97,0.0,0.0,41,0.00,,CLR,0.00,VWS V14.01,2013-11-08 05:41:00,
2013-11-07 21:46:00,49.4,26.1,30.08,East,97,0.0,0.0,40,0.00,,CLR,0.00,VWS V14.01,2013-11-08 05:46:00,
2013-11-07 21:51:00,49.5,26.2,30.07,East,97,0.0,0.0,40,0.00,,CLR,0.00,VWS V14.01,2013-11-08 05:51:00,
2013-11-07 21:56:00,49.5,26.2,30.08,East,97,0.0,0.0,40,0.00,,CLR,0.00,VWS V14.01,2013-11-08 05:56:00,
2013-11-07 22:01:00,49.5,26.2,30.08,East,97,0.0,0.0,40,0.00,,CLR,0.00,VWS V14.01,2013-11-08 06:01:00,
2013-11-07 22:06:00,49.5,26.8,30.08,East,97,0.0,0.0,41,0.00,,CLR,0.00,VWS V14.01,2013-11-08 06:06:00,
2013-11-07 22:11:00,49.4,26.7,30.07,East,97,0.0,0.0,41,0.00,,CLR,0.00,VWS V14.01,2013-11-08 06:11:00,
2013-11-07 22:16:00,49.4,26.7,30.07,East,97,0.0,0.0,41,0.00,,CLR,0.00,VWS V14.01,2013-11-08 06:16:00,
2013-11-07 22:21:00,49.4,26.1,30.07,East,97,0.0,0.0,40,0.00,,CLR,0.00,VWS V14.01,2013-11-08 06:21:00,
2013-11-07 22:27:00,49.3,26.0,30.07,East,97,0.0,0.0,40,0.00,,CLR,0.00,VWS V14.01,2013-11-08 06:27:00,
2013-11-07 22:32:00,49.2,25.9,30.07,East,97,0.0,0.0,40,0.00,,CLR,0.00,VWS V14.01,2013-11-08 06:32:00,
2013-11-07 22:37:00,49.1,25.2,30.07,East,97,0.0,0.0,39,0.00,,CLR,0.00,VWS V14.01,2013-11-08 06:37:00,
2013-11-07 22:42:00,49.0,25.1,30.07,East,97,0.0,0.0,39,0.00,,CLR,0.00,VWS V14.01,2013-11-08 06:42:00,
2013-11-07 22:47:00,48.9,24.4,30.07,East,97,0.0,0.0,38,0.00,,CLR,0.00,VWS V14.01,2013-11-08 06:47:00,
2013-11-07 22:52:00,48.8,25.6,30.07,East,97,0.0,0.0,40,0.00,,CLR,0.00,VWS V14.01,2013-11-08 06:52:00,
2013-11-07 22:57:00,48.6,25.4,30.07,East,97,0.0,0.0,40,0.00,,CLR,0.00,VWS V14.01,2013-11-08 06:57:00,
2013-11-07 23:02:00,48.4,25.2,30.07,East,97,0.0,0.0,40,0.00,,CLR,0.00,VWS V14.01,2013-11-08 07:02:00,
2013-11-07 23:07:00,48.3,25.7,30.07,East,97,0.0,0.0,41,0.00,,CLR,0.00,VWS V14.01,2013-11-08 07:07:00,
2013-11-07 23:12:00,48.3,26.3,30.07,East,97,0.0,0.0,42,0.00,,CLR,0.00,VWS V14.01,2013-11-08 07:12:00,
2013-11-07 23:17:00,48.2,25.6,30.06,East,97,0.0,0.0,41,0.00,,CLR,0.00,VWS V14.01,2013-11-08 07:17:00,
2013-11-07 23:22:00,48.2,25.6,30.06,East,97,0.0,0.0,41,0.00,,CLR,0.00,VWS V14.01,2013-11-08 07:22:00,
2013-11-07 23:27:00,48.1,26.1,30.06,East,97,0.0,0.0,42,0.00,,CLR,0.00,VWS V14.01,2013-11-08 07:27:00,
2013-11-07 23:33:00,47.9,25.4,30.06,East,97,0.0,0.0,41,0.00,,CLR,0.00,VWS V14.01,2013-11-08 07:33:00,
2013-11-07 23:38:00,47.8,25.8,30.05,East,97,0.0,0.0,42,0.00,,CLR,0.00,VWS V14.01,2013-11-08 07:38:00,
2013-11-07 23:43:00,47.7,25.8,30.05,East,97,0.0,0.0,42,0.00,,CLR,0.00,VWS V14.01,2013-11-08 07:43:00,
2013-11-07 23:48:00,47.6,25.7,30.05,East,97,0.0,0.0,42,0.00,,CLR,0.00,VWS V14.01,2013-11-08 07:48:00,
2013-11-07 23:53:00,47.4,25.5,30.05,East,97,0.0,0.0,42,0.00,,CLR,0.00,VWS V14.01,2013-11-08 07:53:00,
2013-11-07 23:58:00,47.4,25.5,30.05,East,97,0.0,1.0,42,0.00,,CLR,0.00,VWS V14.01,2013-11-08 07:58:00,